Location: Unspecified
(0.0000°N, 0.0000°E)
Time: 09:39:23
(UTC+02:00)

Amateur Radio Satellites - All Passes

Search period start: 26 May 2015 09:09
Search period end: 27 May 2015 09:09
Location: Unspecified, 0.0000°N, 0.0000°E

Satellite Date Start Highest point End Downlink Frequencies (MHz)
Time Altitude Azimuth
BRITE-PL 26 May 09:10:00 09:14:32 30° 99° (E) 09:18:54 437.365/2234.400
JUGNU 26 May 09:16:26 09:22:10 45° 340° (NNW) 09:27:52 437.505
GOMX 1 26 May 09:19:26 09:22:59 21° 99° (E) 09:26:34 467.674
HO-68 26 May 09:29:50 09:35:32 27° 103° (ESE) 09:41:29 435.675
PRISM 26 May 09:31:43 09:33:34 12° 259° (W) 09:35:09 437.425
ISS 26 May 09:42:35 09:44:06 13° 53° (NE) 09:45:46 145.825
Cosmos 2491 26 May 09:43:19 09:50:57 32° 265° (W) 09:58:18 435.465 / 435.565
CANX-2 26 May 09:49:14 09:52:52 30° 101° (E) 09:56:36 2200.000
M-CUBED/EXP-1 PRIME 26 May 09:52:49 09:55:50 16° 255° (WSW) 09:58:33 437.505
CUTE 1.7 + AOD 2 26 May 09:52:59 09:56:36 29° 101° (E) 10:00:20 437.475
AUBIESAT-1 26 May 10:02:34 10:05:09 14° 254° (WSW) 10:07:24 437.475
AIST 1 26 May 10:05:26 10:09:41 48° 266° (W) 10:13:56
YUBILEINY 26 May 10:08:54 10:15:29 22° 276° (W) 10:21:29 435.215
Cosmos 2504 26 May 10:10:08 10:16:36 24° 96° (E) 10:23:18 435.465 / 435.565
CINEMA 3 26 May 10:12:11 10:15:25 21° 99° (E) 10:18:43 145.822/145.860
SEEDS 26 May 10:17:00 10:21:03 52° 101° (E) 10:25:10 437.485
DOVE 4 26 May 10:24:35 10:29:22 89° 112° (ESE) 10:33:51 437.250
SRMSAT 26 May 10:30:59 10:36:52 59° 339° (NNW) 10:42:43 437.500
COMPASS 1 26 May 10:32:03 10:36:10 67° 102° (ESE) 10:40:18 437.405
RS-15 26 May 10:42:41 10:52:01 30° 294° (WNW) 11:00:50 29.354- 29.394
AAUSAT CUBESAT 2 26 May 10:45:09 10:49:16 87° 100° (E) 10:53:27 437.432
BRITE-PL 26 May 10:49:31 10:52:52 16° 282° (WNW) 10:55:49 437.365/2234.400
GOMX 1 26 May 10:57:15 11:01:00 21° 282° (WNW) 11:04:26 467.674
VERMONT LUNAR 26 May 11:06:43 11:08:52 17° 41° (NE) 11:11:05 437.305
JUGNU 26 May 11:07:23 11:11:35 19° 345° (NNW) 11:15:41 437.505
CUBEBUG 2 26 May 11:10:19 11:14:29 59° 101° (E) 11:18:36 437.445
HO-68 26 May 11:16:52 11:23:08 32° 283° (WNW) 11:29:15 435.675
ZACube-1 26 May 11:17:03 11:20:56 38° 101° (E) 11:24:50 437.345
ISS 26 May 11:18:02 11:20:25 18° 233° (SW) 11:22:44 145.825
DELFI C3 26 May 11:20:00 11:23:58 65° 101° (E) 11:27:59 145.870
HUMSAT D 26 May 11:21:41 11:24:00 15° 100° (E) 11:26:32 437.325/437.525
TIGRISAT 26 May 11:21:48 11:24:19 15° 80° (E) 11:27:07 435.000
UKube-1 26 May 11:22:25 11:25:06 17° 101° (E) 11:27:59 .
DX 1 26 May 11:28:50 11:32:15 23° 101° (E) 11:35:47 434.975-435.025
Oscar 11 26 May 11:31:48 11:36:00 54° 281° (WNW) 11:40:13 145.826/435.025
CUTE 1.7 + AOD 2 26 May 11:31:57 11:32:27 10° 279° (W) 11:32:34 437.475
VELOX 1 26 May 11:40:08 11:42:03 13° 100° (E) 11:44:16 145.980
UNISAT 6 26 May 11:40:21 11:44:20 28° 79° (E) 11:48:25 437.425
CINEMA 3 26 May 11:49:47 11:52:31 16° 281° (W) 11:54:59 145.822/145.860
QB50P1 26 May 11:56:55 11:59:18 15° 80° (E) 12:01:55 145.935-145.965
POLYITAN 1 26 May 11:58:05 12:00:41 16° 80° (E) 12:03:30 437.675
UWE-3 26 May 12:00:20 12:04:07 32° 281° (W) 12:07:49 435.000/436.395/437.385
Cosmos 2504 26 May 12:01:42 12:09:58 43° 274° (W) 12:17:43 435.465 / 435.565
AISAT 26 May 12:09:17 12:13:22 36° 101° (ESE) 12:17:30 437.250
FUNcube-1 26 May 12:13:22 12:17:02 29° 281° (W) 12:20:36 145.935
SRMSAT 26 May 12:21:38 12:26:18 23° 343° (NNW) 12:30:53 437.500
ANTELSAT 26 May 12:22:55 12:27:36 74° 258° (WSW) 12:32:18 437.575/2403.000
NANOSAT C BR1 26 May 12:27:06 12:31:06 42° 79° (E) 12:35:09 145.865
PCSat 26 May 12:27:26 12:31:52 27° 69° (ENE) 12:36:25 145.827
50 SAT 26 May 12:31:21 12:35:11 90° 319° (NW) 12:39:02 437.505
QB50P2 26 May 12:34:08 12:38:20 58° 79° (ENE) 12:42:32 145.880/145.840
VERMONT LUNAR 26 May 12:43:24 12:45:59 22° 222° (SW) 12:48:34 437.305
POPSAT HIP 1 26 May 12:46:35 12:50:51 86° 81° (E) 12:55:08 437.405
DUCHIFAT 1 26 May 12:49:25 12:53:40 89° 257° (WSW) 12:57:55 145.980
HUMSAT D 26 May 12:56:42 12:59:39 18° 280° (W) 13:02:25 437.325/437.525
TIGRISAT 26 May 12:56:56 13:00:56 27° 259° (W) 13:04:52 435.000
UKube-1 26 May 12:57:52 13:01:07 20° 281° (W) 13:04:13 .
PHONESAT 2.4 26 May 12:58:44 13:02:08 56° 43° (NE) 13:05:33 2401.200-2431.200
JUGNU 26 May 13:00:16 13:01:29 11° 354° (N) 13:02:39 437.505
DX 1 26 May 13:05:49 13:08:23 15° 280° (W) 13:10:42 434.975-435.025
ESTCUBE 1 26 May 13:12:48 13:17:16 57° 282° (WNW) 13:21:45 437.505/2401.250
VELOX 1 26 May 13:14:41 13:18:30 27° 281° (W) 13:22:14 145.980
CUBEBUG 1 26 May 13:15:17 13:19:40 62° 281° (WNW) 13:24:03 437.445
BUGSAT 1 26 May 13:17:25 13:21:24 53° 259° (WSW) 13:25:23 437.445
CUSAT 1 26 May 13:18:14 13:22:41 26° 91° (E) 13:28:17 437.405
UNISAT 6 26 May 13:18:21 13:20:59 14° 260° (W) 13:23:20 437.425
QB50P1 26 May 13:31:47 13:35:03 21° 260° (W) 13:38:11 145.935-145.965
POLYITAN 1 26 May 13:33:18 13:36:29 20° 260° (W) 13:39:31 437.675
SPROUT 26 May 13:58:00 14:02:18 82° 283° (WNW) 14:06:37 437.525
PCSat 26 May 14:11:12 14:15:10 20° 249° (WSW) 14:18:55 145.827
SRMSAT 26 May 14:14:06 14:16:14 12° 352° (N) 14:18:17 437.500
DANDE 26 May 14:22:01 14:27:05 88° 95° (E) 14:33:55 436.750
TISAT 1 26 May 14:25:22 14:29:27 47° 281° (WNW) 14:33:31 437.305
GONETS M04 26 May 14:34:43 14:43:33 84° 273° (W) 14:52:24
Cosmos 2499 26 May 14:45:29 14:48:09 12° 98° (E) 14:51:44 435.465 / 435.565
ITUPSAT 1 26 May 14:49:41 14:53:48 30° 101° (ESE) 14:58:02 437.325
JUGNU 26 May 14:51:06 14:51:39 10° 5° (N) 14:52:16 437.505
BEESAT 26 May 14:57:42 15:02:07 39° 102° (ESE) 15:06:36 436.000
CUSAT 1 26 May 15:00:29 15:05:13 26° 282° (WNW) 15:10:41 437.405
SWISSCUBE 26 May 15:05:48 15:10:28 57° 102° (ESE) 15:15:12 437.505
O/OREOS (USA 219) 26 May 15:08:50 15:09:41 11° 108° (ESE) 15:10:56 437.305
Oscar 19 26 May 15:12:54 15:18:06 84° 258° (WSW) 15:23:18 437.125/150
ITAMSAT 1 26 May 15:25:51 15:30:07 27° 79° (ENE) 15:34:31 435.822/435.867
SO-50 26 May 15:43:22 15:47:57 44° 248° (WSW) 15:52:23 436.795
Gurwin Techsat 1B 26 May 15:57:24 16:02:40 64° 78° (ENE) 16:07:54 435.225
AO-7 26 May 16:19:48 16:24:01 16° 76° (ENE) 16:28:57 29.400- 29.500
STARS 26 May 16:23:09 16:27:01 32° 101° (E) 16:30:57 437.465
HORYU 2 26 May 16:24:22 16:25:57 12° 80° (E) 16:27:53 437.375
ITUPSAT 1 26 May 16:28:58 16:31:36 14° 280° (W) 16:33:55 437.325
Cosmos 2499 26 May 16:32:53 16:41:37 72° 274° (W) 16:49:46 435.465 / 435.565
JUGNU 26 May 16:37:48 16:41:35 18° 14° (NNE) 16:45:27 437.505
BEESAT 26 May 16:39:07 16:39:54 10° 280° (W) 16:40:15 436.000
O/OREOS (USA 219) 26 May 16:44:58 16:49:04 32° 285° (WNW) 16:53:04 437.305
JAS-2 26 May 16:48:23 16:55:11 38° 80° (E) 17:01:29 435.910
KKS-1 26 May 16:52:46 16:57:04 49° 282° (WNW) 17:01:22 437.445
ITAMSAT 1 26 May 17:05:58 17:09:31 18° 259° (W) 17:12:49 435.822/435.867
BEESAT 3 26 May 17:38:01 17:41:36 32° 112° (ESE) 17:45:15 437.485
SRMSAT 26 May 17:53:30 17:56:44 15° 12° (NNE) 18:00:04 437.500
HORYU 2 26 May 17:58:33 18:02:30 30° 259° (WSW) 18:06:23 437.375
STARS 26 May 18:02:25 18:03:23 10° 280° (W) 18:03:59 437.465
AO-7 26 May 18:08:35 18:16:46 63° 255° (WSW) 18:24:54 29.400- 29.500
AIST 2 26 May 18:11:54 18:14:01 14° 114° (ESE) 18:16:24 435.215
MOZHAYETS 4 26 May 18:15:39 18:20:13 84° 101° (ESE) 18:24:50
BEESAT 2 26 May 18:25:18 18:29:16 61° 292° (WNW) 18:33:17 435.950
JUGNU 26 May 18:25:32 18:31:00 41° 20° (NNE) 18:36:30 437.505
JAS-2 26 May 18:33:54 18:40:00 25° 257° (WSW) 18:45:25 435.910
CUTE-I 26 May 19:12:23 19:16:23 23° 79° (E) 19:20:34 437.470
Cubesat XI-IV 26 May 19:31:53 19:36:49 40° 78° (ENE) 19:41:46 437.490
SRMSAT 26 May 19:41:13 19:46:27 33° 19° (NNE) 19:51:46 437.500
AIST 2 26 May 19:49:08 19:52:29 22° 293° (WNW) 19:55:45 435.215
CUBESAT XI-V 26 May 19:52:18 19:56:58 67° 101° (ESE) 20:01:40 437.345
PRISM 26 May 19:58:19 20:01:48 27° 101° (E) 20:05:24 437.425
RS-15 26 May 20:10:31 20:21:13 40° 67° (ENE) 20:32:27 29.354- 29.394
JUGNU 26 May 20:14:15 20:20:04 71° 202° (SSW) 20:25:56 437.505
Cosmos 2491 26 May 20:19:25 20:28:01 64° 94° (E) 20:36:42 435.465 / 435.565
M-CUBED/EXP-1 PRIME 26 May 20:19:51 20:22:17 19° 106° (ESE) 20:24:59 437.505
AUBIESAT-1 26 May 20:28:28 20:31:07 21° 106° (ESE) 20:34:00 437.475
YUBILEINY 26 May 20:43:25 20:52:08 87° 87° (E) 21:00:55 435.215
CUTE-I 26 May 20:52:10 20:56:22 23° 258° (WSW) 21:00:22 437.470
STRAND 1 26 May 20:54:03 20:59:09 64° 282° (WNW) 21:04:16 437.568
Cubesat XI-IV 26 May 21:14:24 21:16:49 13° 259° (W) 21:18:50 437.490
HO-68 26 May 21:21:55 21:27:08 23° 77° (ENE) 21:32:41 435.675
SRMSAT 26 May 21:29:48 21:35:45 89° 11° (N) 21:41:46 437.500
PRISM 26 May 21:35:40 21:37:10 11° 280° (W) 21:38:20 437.425
BRITE-PL 26 May 21:35:43 21:40:12 62° 78° (ENE) 21:45:04 437.365/2234.400
GOMX 1 26 May 21:41:29 21:45:51 40° 78° (ENE) 21:50:32 467.674
CANX-2 26 May 21:55:51 21:59:50 38° 79° (E) 22:03:49 2200.000
CUTE 1.7 + AOD 2 26 May 21:59:31 22:03:29 37° 79° (E) 22:07:27 437.475
JUGNU 26 May 22:04:22 22:09:16 27° 197° (SSW) 22:14:08 437.505
AIST 1 26 May 22:12:46 22:16:36 32° 275° (W) 22:20:22
Cosmos 2491 26 May 22:20:12 22:24:57 15° 277° (W) 22:28:50 435.465 / 435.565
Cosmos 2504 26 May 22:21:21 22:27:07 27° 86° (E) 22:33:24 435.465 / 435.565
RS-15 26 May 22:22:30 22:33:40 40° 247° (WSW) 22:44:37 29.354- 29.394
SEEDS 26 May 22:22:47 22:27:02 66° 79° (E) 22:31:14 437.485
CINEMA 3 26 May 22:27:13 22:31:38 39° 79° (ENE) 22:36:13 145.822/145.860
UWE-3 26 May 22:36:26 22:39:07 16° 80° (E) 22:42:03 435.000/436.395/437.385
COMPASS 1 26 May 22:36:58 22:41:13 81° 77° (ENE) 22:45:24 437.405
VERMONT LUNAR 26 May 22:39:49 22:41:10 12° 140° (SE) 22:42:39 437.305
DOVE 4 26 May 22:44:51 22:49:24 49° 259° (W) 22:54:13 437.250
FUNcube-1 26 May 22:48:03 22:50:44 16° 80° (E) 22:53:40 145.935
AAUSAT CUBESAT 2 26 May 22:49:37 22:53:50 80° 259° (WSW) 22:58:00 437.432
ISS 26 May 22:50:58 22:53:50 29° 306° (NW) 22:56:42 145.825
HO-68 26 May 23:08:07 23:14:45 39° 257° (WSW) 23:21:15 435.675
SRMSAT 26 May 23:19:41 23:25:03 34° 199° (SSW) 23:30:26 437.500
DELFI C3 26 May 23:20:40 23:24:42 67° 79° (E) 23:28:42 145.870
CUBEBUG 2 26 May 23:22:20 23:27:00 88° 259° (WSW) 23:31:46 437.445
HUMSAT D 26 May 23:26:29 23:29:36 20° 80° (E) 23:32:50 437.325/437.525
ZACube-1 26 May 23:26:35 23:31:04 59° 79° (E) 23:35:36 437.345
UKube-1 26 May 23:30:53 23:34:10 22° 79° (E) 23:37:34 .
TIGRISAT 26 May 23:34:41 23:37:41 20° 100° (E) 23:40:52 435.000
DX 1 26 May 23:38:20 23:42:09 31° 79° (E) 23:46:01 434.975-435.025
Oscar 11 26 May 23:40:53 23:45:00 40° 259° (W) 23:49:03 145.826/435.025
VELOX 1 26 May 23:51:11 23:54:12 19° 79° (E) 23:57:23 145.980
UNISAT 6 26 May 23:53:57 23:57:56 40° 101° (E) 00:01:57 437.425
JUGNU 26 May 23:56:15 23:58:58 13° 190° (S) 00:01:36 437.505
QB50P1 27 May 00:03:02 00:05:56 19° 100° (E) 00:09:00 145.935-145.965
POLYITAN 1 27 May 00:04:36 00:07:39 20° 100° (E) 00:10:51 437.675
CINEMA 3 27 May 00:07:28 00:08:48 11° 261° (W) 00:09:43 145.822/145.860
UWE-3 27 May 00:11:40 00:15:31 25° 260° (W) 00:19:16 435.000/436.395/437.385
Cosmos 2504 27 May 00:14:13 00:20:23 29° 264° (W) 00:26:34 435.465 / 435.565
VERMONT LUNAR 27 May 00:15:21 00:18:20 32° 317° (NW) 00:21:18 437.305
AISAT 27 May 00:21:22 00:25:41 54° 78° (ENE) 00:30:01 437.250
FUNcube-1 27 May 00:23:13 00:26:56 24° 260° (W) 00:30:31 145.935
50 SAT 27 May 00:28:51 00:32:53 83° 79° (E) 00:36:54 437.505
NANOSAT C BR1 27 May 00:33:23 00:37:30 53° 102° (ESE) 00:41:38 145.865
ANTELSAT 27 May 00:37:09 00:41:14 44° 281° (W) 00:45:17 437.575/2403.000
PHONESAT 2.4 27 May 00:37:39 00:41:03 45° 138° (SE) 00:44:25 2401.200-2431.200
QB50P2 27 May 00:40:56 00:45:09 74° 101° (ESE) 00:49:22 145.880/145.840
POPSAT HIP 1 27 May 00:53:19 00:57:33 75° 280° (W) 01:01:46 437.405
DUCHIFAT 1 27 May 00:55:40 00:59:52 71° 281° (WNW) 01:04:03 145.980
HUMSAT D 27 May 01:02:19 01:05:12 17° 260° (W) 01:07:53 437.325/437.525
PCSat 27 May 01:02:46 01:08:10 85° 110° (ESE) 01:13:34 145.827
UKube-1 27 May 01:07:36 01:10:11 15° 259° (W) 01:12:32 .
SRMSAT 27 May 01:11:16 01:14:48 16° 192° (SSW) 01:18:16 437.500
TIGRISAT 27 May 01:11:40 01:14:20 16° 280° (W) 01:16:48 435.000
GONETS M04 27 May 01:14:19 01:20:30 23° 84° (E) 01:27:10
DX 1 27 May 01:17:26 01:18:18 10° 260° (W) 01:18:48 434.975-435.025
BUGSAT 1 27 May 01:21:02 01:25:06 47° 281° (WNW) 01:29:08 437.445
CUBEBUG 1 27 May 01:26:00 01:30:07 43° 259° (W) 01:34:12 437.445
VELOX 1 27 May 01:27:30 01:30:39 18° 259° (W) 01:33:36 145.980
ESTCUBE 1 27 May 01:27:37 01:31:44 35° 259° (W) 01:35:48 437.505/2401.250
DANDE 27 May 01:31:07 01:35:26 22° 77° (ENE) 01:39:06 436.750
QB50P1 27 May 01:38:52 01:41:41 17° 280° (W) 01:44:18 145.935-145.965
POLYITAN 1 27 May 01:40:49 01:43:26 15° 280° (W) 01:45:50 437.675
CUSAT 1 27 May 02:04:22 02:09:37 89° 268° (W) 02:13:31 437.405
SPROUT 27 May 02:06:17 02:10:32 61° 259° (WSW) 02:14:47 437.525
Oscar 19 27 May 02:09:53 02:12:35 15° 101° (E) 02:15:36 437.125/150
SO-50 27 May 02:17:29 02:20:09 16° 113° (ESE) 02:23:04 436.795
PHONESAT 2.4 27 May 02:18:10 02:19:09 11° 320° (NW) 02:19:58 2401.200-2431.200
TISAT 1 27 May 02:31:28 02:35:25 38° 259° (W) 02:39:20 437.305
Cosmos 2499 27 May 02:54:07 02:57:00 13° 85° (E) 03:00:40 435.465 / 435.565
Gurwin Techsat 1B 27 May 02:59:51 03:01:13 11° 101° (E) 03:03:04 435.225
SRMSAT 27 May 03:04:36 03:05:02 10° 182° (S) 03:05:26 437.500
GONETS M04 27 May 03:09:05 03:17:16 44° 265° (W) 03:25:17
ITUPSAT 1 27 May 03:11:42 03:16:25 59° 78° (ENE) 03:21:05 437.325
DANDE 27 May 03:14:36 03:18:24 18° 270° (W) 03:21:23 436.750
O/OREOS (USA 219) 27 May 03:17:42 03:20:40 18° 74° (ENE) 03:23:50 437.305
BEESAT 27 May 03:19:33 03:24:20 78° 77° (ENE) 03:29:05 436.000
SWISSCUBE 27 May 03:28:00 03:32:45 72° 257° (WSW) 03:37:29 437.505
KKS-1 27 May 03:32:25 03:33:17 11° 80° (E) 03:34:30 437.445
JUGNU 27 May 03:36:20 03:39:12 14° 170° (S) 03:42:09 437.505
Oscar 19 27 May 03:47:17 03:51:50 32° 281° (WNW) 03:56:19 437.125/150
SO-50 27 May 03:56:56 04:00:32 23° 294° (WNW) 04:04:05 436.795
ITAMSAT 1 27 May 03:59:57 04:05:08 75° 101° (ESE) 04:10:24 435.822/435.867
JAS-2 27 May 04:23:11 04:25:56 14° 104° (ESE) 04:29:14 435.910
STARS 27 May 04:34:07 04:38:21 46° 79° (ENE) 04:42:37 437.465
HORYU 2 27 May 04:35:54 04:38:46 18° 101° (E) 04:41:51 437.375
Gurwin Techsat 1B 27 May 04:36:05 04:41:08 44° 282° (WNW) 04:46:10 435.225
Cosmos 2499 27 May 04:42:58 04:49:58 55° 265° (W) 04:57:25 435.465 / 435.565
AO-7 27 May 04:43:50 04:50:30 28° 105° (ESE) 04:57:29 29.400- 29.500
SRMSAT 27 May 04:53:09 04:55:23 12° 172° (S) 04:57:41 437.500
O/OREOS (USA 219) 27 May 04:56:45 04:59:59 19° 253° (WSW) 05:03:02 437.305
KKS-1 27 May 05:05:48 05:09:50 32° 259° (W) 05:13:47 437.445
JUGNU 27 May 05:23:50 05:28:53 28° 162° (SSE) 05:34:01 437.505
BEESAT 3 27 May 05:32:31 05:36:09 35° 67° (ENE) 05:39:47 437.485
JAS-2 27 May 06:05:47 06:10:49 39° 280° (W) 06:16:19 435.910
AIST 2 27 May 06:10:23 06:13:00 17° 66° (ENE) 06:15:45 435.215
HORYU 2 27 May 06:12:02 06:15:18 20° 281° (W) 06:18:24 437.375
BEESAT 2 27 May 06:20:43 06:24:36 53° 248° (WSW) 06:28:26 435.950
MOZHAYETS 4 27 May 06:32:43 06:37:16 56° 258° (WSW) 06:41:45
AO-7 27 May 06:35:30 06:43:10 39° 285° (WNW) 06:50:42 29.400- 29.500
SRMSAT 27 May 06:40:43 06:45:22 23° 164° (SSE) 06:50:04 437.500
Cosmos 2491 27 May 07:01:56 07:04:53 13° 83° (E) 07:08:50 435.465 / 435.565
JUGNU 27 May 07:12:06 07:18:07 74° 159° (SSE) 07:24:07 437.505
YUBILEINY 27 May 07:23:23 07:29:06 20° 96° (E) 07:35:22 435.215
AIST 2 27 May 07:48:39 07:51:26 17° 247° (WSW) 07:54:03 435.215
STRAND 1 27 May 07:49:24 07:52:51 19° 79° (E) 07:56:31 437.568
CUTE-I 27 May 07:50:31 07:55:49 68° 102° (ESE) 08:01:11 437.470
RS-15 27 May 07:54:39 08:03:38 30° 114° (ESE) 08:12:55 29.354- 29.394
PRISM 27 May 08:02:03 08:05:36 29° 79° (E) 08:09:12 437.425
CUBESAT XI-V 27 May 08:11:00 08:15:34 68° 259° (WSW) 08:20:07 437.345
Cubesat XI-IV 27 May 08:11:02 08:16:22 68° 283° (WNW) 08:21:44 437.490
M-CUBED/EXP-1 PRIME 27 May 08:21:06 08:25:01 27° 77° (ENE) 08:28:49 437.505
SRMSAT 27 May 08:28:57 08:34:50 58° 159° (SSE) 08:40:43 437.500
AUBIESAT-1 27 May 08:29:20 08:33:19 30° 76° (ENE) 08:37:09 437.475
AIST 1 27 May 08:43:57 08:45:50 13° 84° (E) 08:48:00
